643  
ASUS41 KAKQ 210714  
RWRAKQ  
 
REGIONAL WEATHER ROUNDUP  
NATIONAL WEATHER SERVICE WAKEFIELD VA  
200 AM EST WED NOV 21 2018  
 
NOTE: "FAIR" INDICATES FEW OR NO CLOUDS BELOW 12,000 FEET WITH NO  
SIGNIFICANT WEATHER AND/OR S TO VISIBILITY
. * = DENOTES  
STATION MAY NOT REPORT PRECIPITATION (E.G., RAIN,SNOW,ETC.),
 
THUNDER OR FOG.  
 
VAZ042-051-052>054-056-210800-  
NORTHERN VIRGINIA  
 
CITY SKY/WX TMP DP RH WIND PRES REMARKS
 
WASH NATIONAL FAIR 41 25 53 W3 30.17S  
DULLES FAIR 30 27 88 CALM 30.15F  
FORT BELVOIR FAIR 30 29 95 CALM 30.16S  
QUANTICO FAIR 34 31 88 NW8 30.17F  
FREDERICKSBRG* FAIR 30 30 100 CALM 30.17S  
STAFFORD* FAIR 28 28 100 CALM 30.20F  
WARRENTON FAIR 28 25 89 CALM 30.15S  
CULPEPER* FAIR 29 27 92 CALM 30.17S  
MANASSAS* FAIR 26 23 88 CALM 30.17  
LEESBURG* FAIR 36 28 75 CALM 30.16S  
WINCHESTER FAIR 32 25 74 W6 30.14F  
FRONT ROYAL* FAIR 32 27 80 MISG 30.13R  
LURAY* FAIR 32 28 86 S5 30.14R  

 
 
VAZ048-049-060>072-079>083-210800-  
CENTRAL AND SOUTH CENTRAL VIRGINIA  
 
CITY SKY/WX TMP DP RH WIND PRES REMARKS
 
RICHMOND FAIR 31 27 85 SE3 30.17F  
CHESTERFIELD* FAIR 28 25 88 CALM 30.18S  
PETERSBURG* FAIR 28 26 92 SW3 30.19S  
HANOVER FAIR 31 28 89 CALM 30.18F  
TAPPAHANNOCK* FAIR 30 29 99 CALM 30.18R  
QUINTON* FAIR 31 31 100 CALM 30.18S  
CHARLOTTSVILLE FAIR 32 24 72 S5 30.13F  
GORDONSVILLE* FAIR 29 29 99 CALM 30.14F  
ORANGE* FAIR 30 27 86 CALM 30.15F  
LOUISA* FAIR 27 24 88 CALM 30.19F  
BUMPASS* FAIR 28 27 95 CALM 30.16S  
FARMVILLE* FAIR 29 27 92 CALM 30.16S  
CREWE* FAIR 27 26 96 CALM 30.17F  
FORT PICKETT* FAIR 31 31 100 CALM 30.18S  
CHASE CITY* FAIR 31 31 100 CALM 30.18S  
CLARKSVILLE* FAIR 32 32 100 CALM 30.18F  
SOUTH HILL* FAIR 30 30 100 CALM 30.24S  
LAWRENCEVILLE* FAIR 32 31 96 MISG 30.18S  
EMPORIA* FAIR 30 30 100 CALM 30.21R  

 
 
VAZ088>098-210800-  
SOUTHEAST VIRGINIA  
 
CITY SKY/WX TMP DP RH WIND PRES REMARKS
 
NORFOLK FAIR 45 33 63 N6 30.17S  
VIRGINIA BEACH FAIR 40 32 73 N3 30.16S  
NORFOLK NAVAL FAIR 43 30 60 N7 30.19S  
WEST POINT* FAIR 29 29 99 CALM 30.20R  
SALUDA* FAIR 36 31 82 CALM 30.17R  
NEWPORT NEWS FAIR 33 31 92 CALM 30.18S  
LANGLEY AFB NOT AVBL  
FORT EUSTIS NOT AVBL  
WILLIAMSBURG* FAIR 36 34 93 CALM 30.19S  
HR EXEC AP* FAIR 29 28 96 CALM 30.19R  
FRANKLIN* FAIR 31 31 98 CALM 30.19S  
US460-WAKEFLD FAIR 32 30 92 CALM 30.19R  

 
 
VAZ020-022-025-037-045-210800-  
WEST CENTRAL AND SOUTHWEST VIRGINIA  
 
CITY SKY/WX TMP DP RH WIND PRES REMARKS
 
STAUNTON* FAIR 29 25 85 CALM 30.15S  
WAYNESBORO* FAIR 33 25 70 SW7 30.12F  
HOT SPRINGS VA CLOUDY 29 28 98 W17 30.06S WCI 17  
LYNCHBURG FAIR 26 24 92 S3 30.16F  
DANVILLE FAIR 32 29 88 S3 30.19F  
SOUTH BOSTON* FAIR 34 27 74 NW6 30.19S  
MARTINSVILLE NOT AVBL  
ROANOKE FAIR 37 24 59 W3 30.20S  
BLACKSBURG FAIR 33 26 74 W5 30.20S  
DUBLIN* CLOUDY 35 28 77 W10 30.19S  
MARION* MOCLDY 34 28 79 W12 30.20R  
HILLSVILLE* FAIR 32 26 76 W9 30.15R  
RICHLANDS* FAIR 31 24 76 W3 30.19S  
WISE* FAIR 32 32 100 CALM 30.21R  
ABINGDON* FAIR 32 26 80 CALM 30.21S  

 
 
MDZ021>025-VAZ099-100-210800-  
SOUTHERN MARYLAND AND THE DELMARVA PENINSULA  
 
CITY SKY/WX TMP DP RH WIND PRES REMARKS
 
PATUXENT RIVER FAIR 37 29 72 N6 30.15S  
BAY BRIDGE APT FAIR 41 27 56 NW9 30.15F  
LEONARDTOWN FAIR 34 30 86 CALM 30.17S  
DOVER FAIR 35 26 69 W6 30.13S  
GEORGETOWN FAIR 38 26 62 CALM 30.15S  
EASTON FAIR 40 26 58 NW6 30.18F  
CAMBRIDGE CLEAR 41 27 56 NW6 30.15F  
SALISBURY FAIR 36 28 73 CALM 30.15S  
TANGIER FAIR 45 34 65 N12 30.15S  
OCEAN CITY FAIR 31 30 96 NW5 30.15S  
WALLOPS ISLAND FAIR 39 26 59 CALM 30.16R  
ACCOMACK* FAIR 37 32 80 NE3 30.16S  

 
 
NCZ012>017-030>032-210800-  
NORTH CENTRAL AND EASTERN NORTH CAROLINA  
 
CITY SKY/WX TMP DP RH WIND PRES REMARKS
 
ROANOKE RAPIDS FAIR 34 32 93 CALM 30.19S  
RALEIGH FAIR 35 31 85 CALM 30.20R  
ELIZABETH CITY FAIR 45 35 68 N10 30.18R  
AHOSKIE* FAIR 32 32 100 CALM 30.19S  
EDENTON* FAIR 40 39 95 N3 30.19R  
CURRITUCK* FAIR 39 37 91 MISG 30.18S  
KILL DEVIL HLS FAIR 47 36 65 CALM 30.15R  
MANTEO FAIR 47 37 67 NE10 30.16S  
CAPE HATTERAS FAIR 53 42 66 NE7 30.14R  
TARBORO* FAIR 36 35 94 CALM 30.20R  
GOLDSBORO FAIR 43 33 69 N3 30.18R  
WASHINGTON FAIR 40 37 86 CALM 30.19S  
GREENVILLE FAIR 37 34 87 CALM 30.20S  
NEW BERN FAIR 44 39 82 N7 30.18R  
WILMINGTON FAIR 46 36 68 N12 30.17R  

 
 
VAZ048-210800-  
ELSEWHERE  
 
CITY SKY/WX TMP DP RH WIND PRES REMARKS
 
HARRISBURG PA FAIR 37 25 61 W7 30.10F  
BALTIMORE FAIR 35 24 64 CALM 30.15R  
ANNAPOLIS FAIR 38 24 57 SW3 30.15S  
ANDREWS AFB FAIR 36 25 65 CALM 30.15R  
PHILADELPHIA FAIR 35 24 64 W8 30.12S  
HENDERSON NC FAIR 30 27 88 CALM 30.19S  
GREENSBORO FAIR 37 27 67 NW6 30.18S  
ROCKY MOUNT FAIR 36 34 92 CALM 30.20S  

 
 
VAZ100-210800-  
MARINE  
 
STATION/POSITION TIME TEMP WIND PRES WAVE SWELL
 
AIR SEA DIR/SP/G HT/PER HT/PER  
(UTC) (F) (DEG/KT/KT) (MB) (FT/S) (FT/S)  
BRANDYWINE LGT 0642 1020.7R  
CAPE MAY NJ 0648 42 49 310/ 12/ 19 1020.0R  
LEWES DE 0642 41 51 300/ 11/ 14 1020.6R  
15NM E FENWICK I 0650 56 1020.4R 4/ 5  
OCEAN-CITY-INLET 0642 39 51 300/ 3/ 4 1021.7R  
WACHAPREAGUE VA 0642 39 51 360/ 1/ 2 1021.3S  
THOMAS POINT MD 0700 41 49 270/ 5/ 6 1022.0F  
GOOSES REEF MD 0650 44 1021.6F  
COVE POINT MD 0642 43 350/ 17/ 21 1021.5F  
SOLOMONS ISLAND 0642 41 52 320/ 5/ 7 1020.9R  
BISHOPS HEAD MD 0642 39 49 330/ 3/ 4 1021.4S  
PINEY POINT MD 0642 360/ 5/ 6 N/A  
POTOMAC MD 0650 42 340/ 6/ 10 1020.7R  
CAMBRIDGE MD 0642 43 48 1020.8F  
LEWISETTA VA 0642 43 48 360/ 6/ 9 1021.3S  
RAPPAHANNOCK LGT 0642 340/ 18/ 21 1021.9R  
STINGRAY PT 0650 44 360/ 8/ 10 1022.3R  
YORK RVR RNG VA 0642 45 10/ 9/ 12 1022.4R  
YORKTOWN VA 0642 43 54 350/ 4/ 6 1021.7R  
DOMINION TERM VA 0642 43 CALM / 2 1022.2R  
KIPTOPEKE VA 0642 55 30/ 3/ 6 N/A  
CAPE HENRY VA 0642 47 350/ 14/ 16 1019.9R  
WILLOUBY STN VA 0642 44 10/ 9/ 10 1021.2S  
S CRANEY ISL VA 0642 45 20/ 9/ 11 1021.5S  
CAPE HENRY BUOY 0630 58 N/A 4/ 5 2/14  
1ST LANDING BUOY 0650 47 20/ 14/ 17 1021.6S  
64NM E OF VA BCH 0650 50 60 350/ 14/ 17 1021.0R 5/ 6 2/ 9  
DUCK PIER NC 0642 50 58 10/ 11/ 16 1020.9R  
44100 DUCK FRF 0645 60 N/A 5/ 6 2/14  
44056 DUCK FRF 0630 58 N/A 4/ 6 2/12  
OREGON INLET NC 0642 50 58 360/ 8/ 12 1021.0R  
HATTERAS NC 0642 53 62 40/ 9/ 13 1020.4R  
DIAMOND SHLS NC 0650 58 76 20/ 17/ 23 1020.4R 4/ 5 2/ 9  
CAPE LOOKOUT NC 0600 10/ 13/ 16 1020.5R  

 
 
 
CLICK HERE TO GO TO PREVIOUS BULLETINS.

The Nexlab VA Page
The Nexlab NC Page
The Nexlab MD Page Main Text Page